TimeEST,TemperatureF,Dew PointF,Humidity,Sea Level PressureIn,VisibilityMPH,Wind Direction,Wind SpeedMPH,Gust SpeedMPH,PrecipitationIn,Events,Conditions,WindDirDegrees,DateUTC
12:15 AM,18.1,15.6,90,30.38,10.0,Calm,Calm,-,N/A,,Clear,0,2013-12-26 05:15:00
12:35 AM,16.7,15.3,94,30.37,10.0,Calm,Calm,-,N/A,,Clear,0,2013-12-26 05:35:00
12:55 AM,17.2,15.6,93,30.36,10.0,Calm,Calm,-,N/A,,Clear,0,2013-12-26 05:55:00
1:15 AM,16.7,14.9,93,30.36,10.0,Calm,Calm,-,N/A,,Clear,0,2013-12-26 06:15:00
1:35 AM,16.7,15.4,95,30.36,10.0,Calm,Calm,-,N/A,,Clear,0,2013-12-26 06:35:00
1:55 AM,15.8,14.5,95,30.36,10.0,Calm,Calm,-,N/A,,Clear,0,2013-12-26 06:55:00
2:15 AM,15.8,14.7,95,30.35,10.0,South,3.5,-,N/A,,Clear,170,2013-12-26 07:15:00
2:35 AM,17.6,16.0,93,30.34,10.0,Calm,Calm,-,N/A,,Clear,0,2013-12-26 07:35:00
2:55 AM,18.9,16.7,91,30.33,10.0,Calm,Calm,-,N/A,,Clear,0,2013-12-26 07:55:00
3:15 AM,18.0,15.8,91,30.32,10.0,Calm,Calm,-,N/A,,Clear,0,2013-12-26 08:15:00
3:35 AM,17.4,15.1,91,30.32,10.0,Calm,Calm,-,N/A,,Clear,0,2013-12-26 08:35:00
3:55 AM,18.1,16.0,91,30.32,10.0,Calm,Calm,-,N/A,,Clear,0,2013-12-26 08:55:00
4:15 AM,19.8,18.0,93,30.31,10.0,Calm,Calm,-,N/A,,Clear,0,2013-12-26 09:15:00
4:35 AM,21.6,19.4,91,30.31,10.0,Calm,Calm,-,N/A,,Clear,0,2013-12-26 09:35:00
4:55 AM,21.9,19.0,89,30.30,10.0,Calm,Calm,-,N/A,,Clear,0,2013-12-26 09:55:00
5:15 AM,23.0,19.9,88,30.31,10.0,Calm,Calm,-,N/A,,Clear,0,2013-12-26 10:15:00
5:35 AM,25.3,17.2,71,30.30,10.0,Calm,Calm,-,N/A,,Clear,0,2013-12-26 10:35:00
5:55 AM,24.8,17.1,72,30.30,10.0,Calm,Calm,-,N/A,,Clear,0,2013-12-26 10:55:00
6:15 AM,25.0,16.7,71,30.30,10.0,Calm,Calm,-,N/A,,Clear,0,2013-12-26 11:15:00
6:35 AM,23.9,17.8,77,30.30,10.0,Calm,Calm,-,N/A,,Clear,0,2013-12-26 11:35:00
6:55 AM,22.6,16.9,79,30.30,10.0,SE,3.5,-,N/A,,Clear,140,2013-12-26 11:55:00
7:15 AM,21.4,17.8,86,30.31,10.0,Calm,Calm,-,N/A,,Clear,0,2013-12-26 12:15:00
7:35 AM,20.5,17.6,89,30.31,10.0,Calm,Calm,-,N/A,,Clear,0,2013-12-26 12:35:00
7:55 AM,21.4,16.9,83,30.31,10.0,Calm,Calm,-,N/A,,Clear,0,2013-12-26 12:55:00
8:15 AM,21.7,17.6,84,30.32,10.0,Calm,Calm,-,N/A,,Clear,0,2013-12-26 13:15:00
8:35 AM,21.9,18.0,85,30.32,10.0,Calm,Calm,-,N/A,,Clear,0,2013-12-26 13:35:00
8:55 AM,23.9,19.2,82,30.32,10.0,Calm,Calm,-,N/A,,Clear,0,2013-12-26 13:55:00
9:15 AM,28.4,18.9,67,30.33,10.0,Calm,Calm,-,N/A,,Clear,0,2013-12-26 14:15:00
9:35 AM,31.1,20.7,65,30.33,10.0,Calm,Calm,-,N/A,,Clear,0,2013-12-26 14:35:00
9:55 AM,32.9,19.6,58,30.33,10.0,Calm,Calm,-,N/A,,Clear,0,2013-12-26 14:55:00
10:15 AM,36.9,17.8,46,30.33,10.0,Calm,Calm,-,N/A,,Clear,0,2013-12-26 15:15:00
10:35 AM,38.8,18.0,43,30.33,10.0,South,3.5,-,N/A,,Clear,170,2013-12-26 15:35:00
10:55 AM,40.6,21.0,46,30.32,10.0,ESE,4.6,-,N/A,,Clear,110,2013-12-26 15:55:00
11:15 AM,42.8,22.3,44,30.31,10.0,East,3.5,-,N/A,,Clear,90,2013-12-26 16:15:00
11:35 AM,45.3,22.3,40,30.30,10.0,East,3.5,-,N/A,,Clear,100,2013-12-26 16:35:00
11:55 AM,48.7,22.6,36,30.29,10.0,WSW,4.6,-,N/A,,Clear,250,2013-12-26 16:55:00
12:15 PM,49.5,22.1,34,30.28,10.0,WSW,3.5,-,N/A,,Clear,240,2013-12-26 17:15:00
12:35 PM,51.3,23.2,33,30.27,10.0,Calm,Calm,-,N/A,,Clear,0,2013-12-26 17:35:00
12:55 PM,52.0,21.9,31,30.26,10.0,West,11.5,17.3,N/A,,Clear,270,2013-12-26 17:55:00
1:15 PM,52.3,21.7,30,30.25,10.0,WNW,6.9,-,N/A,,Clear,300,2013-12-26 18:15:00
1:30 PM,52.9,21.6,29,30.25,10.0,WNW,6.9,-,N/A,,Clear,290,2013-12-26 18:30:00
1:55 PM,52.9,21.4,29,30.25,10.0,WNW,5.8,-,N/A,,Clear,300,2013-12-26 18:55:00
2:15 PM,52.9,21.0,29,30.25,10.0,West,8.1,-,N/A,,Clear,280,2013-12-26 19:15:00
2:35 PM,52.9,20.1,28,30.25,10.0,NW,8.1,18.4,N/A,,Clear,310,2013-12-26 19:35:00
2:55 PM,52.2,19.6,28,30.25,10.0,WNW,8.1,19.6,N/A,,Clear,300,2013-12-26 19:55:00
3:15 PM,52.0,20.3,29,30.26,10.0,NW,10.4,-,N/A,,Clear,320,2013-12-26 20:15:00
3:35 PM,50.9,20.8,31,30.26,10.0,NW,12.7,-,N/A,,Clear,320,2013-12-26 20:35:00
3:55 PM,50.0,21.6,33,30.27,10.0,NW,6.9,-,N/A,,Clear,320,2013-12-26 20:55:00
4:15 PM,49.1,22.3,35,30.27,10.0,NW,4.6,-,N/A,,Clear,310,2013-12-26 21:15:00
4:35 PM,47.5,23.7,39,30.28,10.0,Calm,Calm,-,N/A,,Clear,0,2013-12-26 21:35:00
4:55 PM,44.6,24.6,45,30.28,10.0,North,4.6,-,N/A,,Clear,360,2013-12-26 21:55:00
5:15 PM,41.9,23.4,48,30.29,10.0,North,4.6,-,N/A,,Clear,350,2013-12-26 22:15:00
5:35 PM,39.4,21.9,50,30.30,10.0,NNW,3.5,-,N/A,,Clear,340,2013-12-26 22:35:00
5:55 PM,35.6,23.7,62,30.31,10.0,NW,4.6,-,N/A,,Clear,310,2013-12-26 22:55:00
6:15 PM,36.9,21.6,54,30.32,10.0,NW,4.6,-,N/A,,Clear,320,2013-12-26 23:15:00
6:35 PM,35.2,21.2,57,30.33,10.0,NNW,4.6,-,N/A,,Clear,340,2013-12-26 23:35:00
6:55 PM,34.7,21.0,57,30.35,10.0,NW,3.5,-,N/A,,Clear,310,2013-12-26 23:55:00
7:15 PM,33.3,21.2,61,30.36,10.0,NW,4.6,-,N/A,,Clear,320,2013-12-27 00:15:00
7:35 PM,35.4,20.3,54,30.36,10.0,NNW,6.9,-,N/A,,Clear,330,2013-12-27 00:35:00
7:55 PM,37.8,20.1,49,30.37,10.0,NNW,6.9,-,N/A,,Clear,340,2013-12-27 00:55:00
8:15 PM,37.8,19.0,47,30.37,10.0,NNW,5.8,-,N/A,,Clear,330,2013-12-27 01:15:00
8:35 PM,35.6,18.9,51,30.38,10.0,NNW,4.6,-,N/A,,Clear,340,2013-12-27 01:35:00
8:55 PM,34.2,19.4,55,30.38,10.0,North,8.1,-,N/A,,Clear,350,2013-12-27 01:55:00
9:15 PM,36.0,18.5,49,30.38,10.0,NNW,9.2,-,N/A,,Clear,340,2013-12-27 02:15:00
9:35 PM,34.3,19.0,54,30.39,10.0,Calm,Calm,-,N/A,,Clear,0,2013-12-27 02:35:00
9:55 PM,32.5,18.7,57,30.38,10.0,North,5.8,-,N/A,,Clear,350,2013-12-27 02:55:00
10:15 PM,32.2,18.9,58,30.38,10.0,North,4.6,-,N/A,,Clear,350,2013-12-27 03:15:00
10:35 PM,32.4,18.7,57,30.39,10.0,North,3.5,-,N/A,,Clear,10,2013-12-27 03:35:00
10:55 PM,30.7,20.5,66,30.39,10.0,Calm,Calm,-,N/A,,Clear,0,2013-12-27 03:55:00
11:15 PM,28.2,20.7,73,30.40,10.0,Calm,Calm,-,N/A,,Clear,0,2013-12-27 04:15:00
11:35 PM,27.7,19.4,71,30.39,10.0,Calm,Calm,-,N/A,,Clear,0,2013-12-27 04:35:00
11:55 PM,27.1,19.8,74,30.39,10.0,Calm,Calm,-,N/A,,Clear,0,2013-12-27 04:55:00